Location: Bienfait
(49.1431°N, 102.8077°W)
Time: 11:32:35
(UTC+00:00)

ISS - Visible Passes

Search period start: 18 January 2022 00:00
Search period end: 28 January 2022 00:00
Orbit: 413 x 422 km, 51.6° (Epoch: 18 January)

Date Brightness Start Highest point End Pass type
(mag) Time Alt. Az. Time Alt. Az. Time Alt. Az.
18 Jan -1.2 01:47:09 10° SSW 01:47:55 14° S 01:47:55 14° S visible
19 Jan -1.8 01:00:00 10° S 01:02:07 16° SE 01:02:14 16° SE visible
19 Jan -0.4 02:35:07 10° WSW 02:35:11 10° WSW 02:35:11 10° WSW visible
20 Jan -1.3 00:13:52 10° SE 00:14:24 10° SE 00:14:56 10° SE visible
20 Jan -2.4 01:47:18 10° SW 01:49:25 33° SSW 01:49:25 33° SSW visible
21 Jan -2.8 00:59:36 10° SSW 01:02:39 34° SSE 01:03:34 28° ESE visible
21 Jan -0.5 02:35:58 10° W 02:36:31 14° W 02:36:31 14° W visible
22 Jan -2.2 00:12:06 10° SSW 00:14:49 23° SE 00:17:32 10° E visible
22 Jan -3.1 01:47:57 10° WSW 01:50:36 53° WSW 01:50:36 53° WSW visible
23 Jan -3.8 00:59:59 10° WSW 01:03:18 70° SSE 01:04:38 33° E visible
23 Jan -0.6 02:36:54 10° W 02:37:34 15° W 02:37:34 15° W visible
24 Jan -3.2 00:12:07 10° SW 00:15:20 49° SSE 00:18:35 10° ENE visible
24 Jan -3.0 01:48:48 10° W 01:51:33 50° NW 01:51:33 50° NW visible
25 Jan -3.7 01:00:42 10° W 01:04:03 71° NNW 01:05:30 30° ENE visible
25 Jan -0.6 02:37:45 10° WNW 02:38:26 15° WNW 02:38:26 15° WNW visible
26 Jan -3.8 00:12:39 10° WSW 00:15:59 89° NNW 00:19:20 10° ENE visible
26 Jan -2.9 01:49:39 10° WNW 01:52:22 45° NW 01:52:22 45° NW visible
27 Jan -3.4 01:01:32 10° W 01:04:49 54° N 01:06:17 28° ENE visible
27 Jan -0.7 02:38:28 10° WNW 02:39:13 16° WNW 02:39:13 16° WNW visible
